Orbital Elements at Epoch 2459200.5 (2020-Dec-17.0) TDB
Reference: JPL 31 (heliocentric ecliptic J2000)
Element | Value | Uncertainty (1-sigma) | Units |
e | .05209706795468102 | 3.3394e-08 | |
a | 2.987732304750911 | 1.6392e-08 | au |
q | 2.832080211839907 | 9.7144e-08 | au |
i | 11.49741459347463 | 3.3792e-06 | deg |
node | 126.9538868801144 | 1.9643e-05 | deg |
peri | 126.9344611057165 | 4.0824e-05 | deg |
M | 173.0850776619781 | 3.6502e-05 | deg |
tp | 2458293.581882800349 (2018-Jun-24.08188280) | 0.00018975 | TDB |
period | 1886.300809995217 5.16 | 1.5524e-05 4.25e-08 | d yr |
n | .1908497298481852 | 1.5706e-09 | deg/d |
Q | 3.143384397661916 | 1.7246e-08 | au |
|
| | Orbit Determination Parameters
Additional Information
|